Latest Weather Observations for Mount Magnet Airport

IDW60801

Issued at 8:35 pm WST Tuesday 29 July 2014 (issued every 30 minutes, with the page automatically refreshed every 10 minutes)

About weather observations | Map of weather stations | Latest weather observations for WA | Other Formats
Station Details ID: 007600 Name: MOUNT MAGNET AERO Lat: -28.12 Lon: 117.84 Height: 407.0 m
Data from the previous 72 hours. | See also: Recent months at Mount Magnet Airport
Date/Time
WST
Temp
°C
App
Temp
°C
Dew
Point
Rel
Hum
%
Delta-T
°C
Wind Press
QNH
hPa
Press
MSL
hPa
Rain
since 9 am
mm
Dir
 
Spd
km/h
Gust
km/h
Spd
kts
Gust
kts
29/08:30pm 14.0 10.5 1.0 41 5.7 S 9 13 5 7 1024.7 - 0.0
29/08:00pm 15.1 12.2 1.6 40 6.0 ENE 6 6 3 3 1024.3 1024.1 0.0
29/07:30pm 14.1 10.9 0.7 40 5.8 NE 7 9 4 5 1024.0 - 0.0
29/07:00pm 16.0 14.1 0.6 35 6.8 CALM 0 0 0 0 1023.8 1023.6 0.0
29/06:30pm 18.1 14.6 1.2 32 7.7 W 9 9 5 5 1023.6 - 0.0
29/06:00pm 19.3 16.2 1.3 30 8.3 W 7 11 4 6 1023.5 1023.3 0.0
29/05:30pm 20.7 16.9 1.6 28 9.0 NW 11 15 6 8 1023.2 - 0.0
29/05:00pm 21.4 18.0 1.6 27 9.3 WNW 9 15 5 8 1023.1 1022.9 0.0
29/04:30pm 20.9 18.1 3.2 31 8.6 NNE 7 11 4 6 1022.9 - 0.0
29/04:00pm 21.6 19.9 3.8 31 8.7 W 2 6 1 3 1023.1 1022.9 0.0
29/03:30pm 21.2 17.8 3.9 32 8.5 N 11 20 6 11 1023.1 - 0.0
29/03:00pm 20.8 17.3 3.5 32 8.4 N 11 17 6 9 1023.3 1023.1 0.0
29/02:30pm 20.6 17.4 3.3 32 8.4 W 9 13 5 7 1023.4 - 0.0
29/02:00pm 19.9 16.8 3.6 34 7.9 NNW 9 17 5 9 1023.7 1023.5 0.0
29/01:30pm 19.6 16.5 3.7 35 7.7 N 9 11 5 6 1024.0 - 0.0
29/01:00pm 19.6 16.7 4.5 37 7.4 W 9 13 5 7 1024.5 1024.3 0.0
29/12:30pm 18.4 16.1 4.6 40 6.7 SSE 6 9 3 5 1025.0 - 0.0
29/12:00pm 18.0 14.8 5.2 43 6.3 NE 11 17 6 9 1025.6 1025.4 0.0
29/11:30am 17.2 14.4 5.2 45 5.9 SE 9 15 5 8 1026.0 - 0.0
29/11:00am 17.0 14.7 5.6 47 5.6 ESE 7 15 4 8 1026.3 1026.2 0.0
29/10:30am 15.9 12.9 6.1 52 4.8 E 11 17 6 9 1026.7 - 0.0
29/10:00am 15.0 12.0 6.0 55 4.4 E 11 17 6 9 1026.9 1026.7 0.0
29/09:30am 13.2 9.7 5.4 59 3.7 ENE 13 17 7 9 1026.7 - 0.0
29/09:00am 11.8 9.4 5.2 64 3.1 E 7 15 4 8 1026.7 1026.6 0.0
29/08:30am 9.9 8.7 4.5 69 2.5 CALM 0 0 0 0 1026.5 - 0.0
29/08:00am 8.2 6.8 3.3 71 2.1 CALM 0 0 0 0 1026.3 1026.2 0.0
29/07:30am 5.9 3.1 2.2 77 1.5 N 6 7 3 4 1025.8 - 0.0
29/07:00am 5.0 3.2 1.5 78 1.4 CALM 0 0 0 0 1025.5 1025.3 0.0
29/06:30am 5.7 3.3 2.2 78 1.5 WSW 4 7 2 4 1025.1 - 0.0
29/06:00am 6.0 2.7 2.5 78 1.5 SW 9 9 5 5 1024.8 1024.6 0.0
29/05:30am 6.4 3.5 2.7 77 1.6 WSW 7 11 4 6 1024.6 - 0.0
29/05:00am 6.7 4.0 2.6 75 1.7 WSW 6 7 3 4 1024.6 1024.4 0.0
29/04:30am 7.0 4.3 2.5 73 1.9 WSW 6 7 3 4 1024.5 - 0.0
29/04:00am 7.2 5.6 2.7 73 1.9 CALM 0 0 0 0 1024.5 1024.3 0.0
29/03:30am 7.2 5.6 2.3 71 2.1 CALM 0 6 0 3 1024.6 - 0.0
29/03:00am 7.2 5.5 2.1 70 2.1 CALM 0 0 0 0 1024.5 1024.3 0.0
29/02:30am 7.1 5.4 2.0 70 2.1 CALM 0 0 0 0 1024.3 - 0.0
29/02:00am 8.1 6.5 2.6 68 2.4 CALM 0 0 0 0 1024.5 1024.3 0.0
29/01:30am 7.7 4.9 2.2 68 2.3 N 6 7 3 4 1024.6 - 0.0
29/01:00am 7.9 5.8 2.0 66 2.5 N 2 7 1 4 1024.8 1024.6 0.0
29/12:30am 8.4 6.8 2.2 65 2.6 CALM 0 0 0 0 1024.9 - 0.0
29/12:00am 9.3 6.6 2.6 63 2.9 S 6 7 3 4 1024.9 1024.7 0.0
 
Date/Time
WST
Temp
°C
App
Temp
°C
Dew
Point
Rel
Hum
%
Delta-T
°C
Wind Press
QNH
hPa
Press
MSL
hPa
Rain
since 9 am
mm
Dir
 
Spd
km/h
Gust
km/h
Spd
kts
Gust
kts
28/11:30pm 10.5 7.8 3.8 63 3.0 S 7 7 4 4 1025.0 - 0.0
28/11:00pm 10.8 8.3 3.6 61 3.2 S 6 9 3 5 1025.3 1025.1 0.0
28/10:30pm 11.3 8.5 3.3 58 3.6 S 7 11 4 6 1025.2 - 0.0
28/10:00pm 11.0 9.6 3.3 59 3.4 CALM 0 0 0 0 1025.1 1024.9 0.0
28/09:30pm 12.0 10.6 3.3 55 3.9 CALM 0 0 0 0 1025.0 - 0.0
28/09:00pm 12.9 11.1 3.6 53 4.2 SSW 2 6 1 3 1024.8 1024.6 0.0
28/08:30pm 14.1 11.1 4.1 51 4.7 SSW 9 11 5 6 1024.7 - 0.0
28/08:00pm 14.7 11.6 3.8 48 5.1 SW 9 11 5 6 1024.4 1024.2 0.0
28/07:30pm 15.4 12.7 3.9 46 5.4 SW 7 11 4 6 1024.4 - 0.0
28/07:00pm 16.5 12.7 3.9 43 6.0 SSW 13 13 7 7 1024.1 1023.9 0.0
28/06:30pm 16.6 13.6 4.0 43 6.0 SSW 9 11 5 6 1023.9 - 0.0
28/06:00pm 17.6 14.9 3.5 39 6.7 SW 7 11 4 6 1023.8 1023.6 0.0
28/05:30pm 18.5 14.9 2.8 35 7.4 SW 11 13 6 7 1023.4 - 0.0
28/05:00pm 19.1 15.8 2.5 33 7.8 SW 9 13 5 7 1023.2 1023.0 0.0
28/04:30pm 19.0 15.8 3.2 35 7.5 SSW 9 15 5 8 1023.1 - 0.0
28/04:00pm 19.5 17.1 2.4 32 8.0 WSW 4 13 2 7 1022.9 1022.7 0.0
28/03:30pm 19.0 15.2 2.0 32 7.9 W 11 17 6 9 1023.0 - 0.0
28/03:00pm 18.8 15.1 2.2 33 7.7 SW 11 17 6 9 1023.2 1023.0 0.0
28/02:30pm 19.2 16.6 3.4 35 7.6 NNW 6 9 3 5 1023.3 - 0.0
28/02:00pm 18.7 16.1 4.1 38 7.0 E 7 13 4 7 1023.6 1023.4 0.0
28/01:30pm 18.0 15.5 4.6 41 6.5 S 7 15 4 8 1023.8 - 0.0
28/01:00pm 18.1 15.7 5.3 43 6.3 SSW 7 11 4 6 1024.4 1024.2 0.0
28/12:30pm 17.4 15.4 6.3 48 5.6 SW 6 11 3 6 1024.8 - 0.0
28/12:00pm 16.2 13.8 6.9 54 4.7 SSW 9 15 5 8 1025.3 1025.1 0.0
28/11:30am 16.4 14.6 7.9 57 4.4 E 7 11 4 6 1025.7 - 0.0
28/11:00am 15.4 13.7 8.2 62 3.7 SSW 7 15 4 8 1026.1 1025.9 0.0
28/10:30am 14.2 12.5 8.2 67 3.1 ESE 7 13 4 7 1026.5 - 0.0
28/10:00am 13.4 11.9 8.5 72 2.5 SSE 6 9 3 5 1026.9 1026.7 0.0
28/09:30am 11.6 9.5 8.3 80 1.7 SE 9 11 5 6 1026.9 - 0.0
28/09:00am 10.4 7.3 7.1 80 1.6 S 13 19 7 10 1026.5 1026.4 0.0
28/08:30am 9.7 7.8 4.9 72 2.2 WSW 4 7 2 4 1026.2 - 0.0
28/08:00am 8.0 6.6 3.3 72 2.0 CALM 0 0 0 0 1025.9 1025.7 0.0
28/07:30am 6.7 5.1 2.6 75 1.7 CALM 0 0 0 0 1025.7 - 0.0
28/07:00am 5.5 3.2 2.7 82 1.2 W 4 6 2 3 1025.3 1025.1 0.0
28/06:30am 4.8 3.0 1.5 79 1.3 CALM 0 6 0 3 1024.9 - 0.0
28/06:00am 6.0 3.2 2.3 77 1.5 W 6 6 3 3 1024.6 1024.4 0.0
28/05:30am 6.1 3.4 2.4 77 1.6 W 6 7 3 4 1024.3 - 0.0
28/05:00am 6.7 5.2 2.8 76 1.7 CALM 0 0 0 0 1024.1 1023.9 0.0
28/04:30am 6.8 5.2 2.7 75 1.7 CALM 0 0 0 0 1024.4 - 0.0
28/04:00am 7.9 6.6 3.9 76 1.8 CALM 0 0 0 0 1024.4 1024.2 0.0
28/03:30am 7.9 6.5 3.8 75 1.8 CALM 0 0 0 0 1024.3 - 0.0
28/03:00am 8.5 6.4 3.8 72 2.1 SW 4 6 2 3 1024.3 1024.1 0.0
28/02:30am 9.0 6.4 4.0 71 2.2 SSW 7 7 4 4 1024.1 - 0.0
28/02:00am 9.2 7.8 3.8 69 2.4 CALM 0 4 0 2 1024.3 1024.1 0.0
28/01:30am 9.9 8.6 4.3 68 2.5 CALM 0 0 0 0 1024.3 - 0.0
28/01:00am 10.7 8.2 4.6 66 2.8 SSW 7 9 4 5 1024.1 1023.9 0.0
28/12:30am 11.3 9.4 5.0 65 2.9 S 4 6 2 3 1024.3 - 0.0
28/12:00am 12.3 9.8 5.0 61 3.4 S 7 9 4 5 1024.1 1023.9 0.0
 
Date/Time
WST
Temp
°C
App
Temp
°C
Dew
Point
Rel
Hum
%
Delta-T
°C
Wind Press
QNH
hPa
Press
MSL
hPa
Rain
since 9 am
mm
Dir
 
Spd
km/h
Gust
km/h
Spd
kts
Gust
kts
27/11:30pm 13.0 9.4 5.2 59 3.7 S 13 15 7 8 1024.1 - 0.0
27/11:00pm 13.7 9.7 5.1 56 4.1 S 15 20 8 11 1024.1 1023.9 0.0
27/10:30pm 14.2 9.5 5.3 55 4.3 S 19 26 10 14 1024.4 - 0.0
27/10:00pm 14.9 10.1 5.7 54 4.5 S 20 28 11 15 1024.4 1024.2 0.0
27/09:30pm 15.4 11.0 6.7 56 4.3 SSW 19 24 10 13 1024.3 - 0.0
27/09:00pm 15.8 14.2 8.8 63 3.6 SW 7 9 4 5 1024.0 1023.8 0.0
27/08:30pm 16.2 14.8 8.9 62 3.8 SSW 6 7 3 4 1023.9 - 0.0
27/08:00pm 16.6 15.1 9.1 61 3.9 SW 7 9 4 5 1023.9 1023.7 0.0
27/07:30pm 16.7 15.3 8.9 60 4.1 SW 6 7 3 4 1023.7 - 0.0
27/07:00pm 16.9 15.4 9.1 60 4.1 SW 7 9 4 5 1023.4 1023.2 0.0
27/06:30pm 17.1 15.2 9.0 59 4.3 SW 9 13 5 7 1023.2 - 0.0
27/06:00pm 17.2 14.9 8.9 58 4.4 SW 11 15 6 8 1023.0 1022.8 0.0
27/05:30pm 17.5 14.8 8.9 57 4.5 SW 13 15 7 8 1022.7 - 0.0
27/05:00pm 17.6 15.0 9.2 58 4.5 SW 13 17 7 9 1022.5 1022.3 0.0
27/04:30pm 17.9 15.7 9.3 57 4.6 SSW 11 17 6 9 1022.3 - 0.0
27/04:00pm 17.8 15.2 9.2 57 4.6 SW 13 19 7 10 1022.3 1022.1 0.0
27/03:30pm 17.8 15.6 9.4 58 4.5 WSW 11 17 6 9 1022.1 - 0.0
27/03:00pm 17.5 15.3 9.2 58 4.4 SSW 11 20 6 11 1022.0 1021.7 0.0
27/02:30pm 17.1 15.3 9.5 61 4.1 SSE 9 17 5 9 1021.9 - 0.0
27/02:00pm 17.2 15.4 9.6 61 4.1 SSE 9 15 5 8 1022.2 1022.0 0.0
27/01:30pm 16.7 15.9 9.6 63 3.8 SW 4 11 2 6 1022.4 - 0.0
27/01:00pm 16.6 15.5 9.8 64 3.6 SSW 6 11 3 6 1022.8 1022.6 0.0
27/12:30pm 15.9 14.2 9.8 67 3.3 S 9 17 5 9 1023.3 - 0.0
27/12:00pm 15.4 13.7 10.0 70 2.9 S 9 13 5 7 1023.9 1023.7 0.0
27/11:30am 15.3 13.7 10.1 71 2.8 ESE 9 17 5 9 1024.6 - 0.0
27/11:00am 14.2 12.2 10.2 77 2.1 S 11 15 6 8 1025.0 1024.8 0.0
27/10:30am 14.0 11.7 10.4 79 1.9 S 13 17 7 9 1025.2 - 0.0
27/10:00am 13.7 11.0 10.3 80 1.8 S 15 19 8 10 1025.2 1025.0 0.0
27/09:30am 13.6 10.5 10.4 81 1.7 S 17 20 9 11 1025.2 - 0.0
27/09:00am 12.7 10.1 10.6 87 1.1 SSE 15 20 8 11 1025.0 1024.8 0.0
27/08:30am 12.5 9.7 10.0 85 1.3 S 15 19 8 10 1024.6 - 0.0
27/08:00am 12.7 10.8 10.6 87 1.1 SSW 11 15 6 8 1024.1 1023.9 0.0
27/07:30am 12.7 11.1 10.2 85 1.3 WSW 9 11 5 6 1023.7 - 0.0
27/07:00am 12.4 11.1 9.8 84 1.4 WSW 7 9 4 5 1023.2 1023.0 0.0
27/06:30am 12.3 10.9 9.7 84 1.4 WNW 7 9 4 5 1022.8 - 0.0
27/06:00am 11.4 9.8 8.6 83 1.4 NW 7 7 4 4 1022.6 1022.4 0.0
27/05:30am 10.3 7.9 7.0 80 1.6 NNW 9 11 5 6 1022.4 - 0.0
27/05:00am 10.8 8.9 7.7 81 1.5 NW 7 9 4 5 1022.1 1021.8 0.0
27/04:30am 10.7 8.8 7.4 80 1.6 WNW 7 7 4 4 1022.3 - 0.0
27/04:00am 11.6 9.6 8.5 81 1.6 WNW 9 11 5 6 1022.2 1022.0 0.0
27/03:30am 11.6 9.4 7.7 77 1.9 W 9 11 5 6 1022.1 - 0.0
27/03:00am 11.8 9.4 7.1 73 2.3 W 9 9 5 5 1022.1 1021.8 0.0
27/02:30am 12.0 9.6 6.9 71 2.5 W 9 11 5 6 1022.1 - 0.0
27/02:00am 12.5 10.4 6.5 67 2.9 WNW 7 9 4 5 1022.1 1021.8 0.0
27/01:30am 12.9 10.8 6.5 65 3.1 W 7 9 4 5 1022.0 - 0.0
27/01:00am 13.8 11.4 6.9 63 3.4 W 9 11 5 6 1021.9 1021.6 0.0
27/12:30am 14.2 11.4 6.8 61 3.7 W 11 15 6 8 1021.9 - 0.0
27/12:00am 14.2 10.8 6.1 58 3.9 W 13 15 7 8 1021.9 1021.6 0.0
 
Date/Time
WST
Temp
°C
App
Temp
°C
Dew
Point
Rel
Hum
%
Delta-T
°C
Wind Press
QNH
hPa
Press
MSL
hPa
Rain
since 9 am
mm
Dir
 
Spd
km/h
Gust
km/h
Spd
kts
Gust
kts
26/11:30pm 14.2 10.6 5.0 54 4.4 NW 13 17 7 9 1021.8 - 0.0
26/11:00pm 14.4 10.7 4.4 51 4.7 NW 13 15 7 8 1021.7 1021.4 0.0
26/10:30pm 14.5 11.0 3.6 48 5.1 NW 11 15 6 8 1021.8 - 0.0
26/10:00pm 15.0 11.1 3.2 45 5.4 NNW 13 17 7 9 1021.8 1021.5 0.0
26/09:30pm 14.9 10.9 3.1 45 5.4 NNW 13 15 7 8 1021.7 - 0.0
26/09:00pm 14.8 10.4 2.7 44 5.5 NNW 15 15 8 8 1021.5 1021.3 0.0

Other Formats:

Comma delimited format used in spreadsheet applications
http://www.bom.gov.au/fwo/IDW60801/IDW60801.94429.axf

JavaScript Object Notation format (JSON) in row-major order
http://www.bom.gov.au/fwo/IDW60801/IDW60801.94429.json